Regional Weather Roundup
Issued by NWS

Home | Current Version | Previous Version | Graphics & Text | Print | Product List | Glossary On
Versions: 1 2 3 4 5 6 7 8 9 10 11 12 13 14 15 16 17 18 19 20 21 22 23 24 25 26 27 28 29 30 31 32 33 34 35 36 37 38 39 40 41 42 43 44 45 46 47 48 49 50
918
ASUS43 KOAX 282310
RWRNE

WEATHER ROUNDUP FOR NEBRASKA
NATIONAL WEATHER SERVICE OMAHA NE
600 PM CDT WED SEP 28 2016

NOTES: SATELLITE DATA IS BEING USED TO AUGMENT CLOUD COVER ABOVE
       12000 FEET.
       "FAIR" INDICATES FEW OR NO CLOUDS BELOW 12,000 FEET WITH NO
       SIGNIFICANT WEATHER AND/OR OBSTRUCTIONS TO VISIBILITY.

  * THESE STATIONS DO NOT REPORT WEATHER SUCH AS RAIN...SNOW OR FOG.

NEZ001>004-019>022-054>056-290000-
NEBRASKA PANHANDLE

CITY           SKY/WX    TMP DP  RH WIND       PRES   REMARKS
SCOTTSBLUFF    SUNNY     80  39  23 E10       30.26S
ALLIANCE       SUNNY     80  39  23 E6        30.26R
CHADRON        SUNNY     81  41  24 NE9       30.24R
KIMBALL        SUNNY     76  42  29 NE3       30.32S
SIDNEY         SUNNY     78  34  20 E9        30.30R
$$

NEZ057>060-069>072-079>082-290000-
SOUTHWEST NEBRASKA

CITY           SKY/WX    TMP DP  RH WIND       PRES   REMARKS
NORTH PLATTE   SUNNY     77  41  27 NE10      30.25R
IMPERIAL       SUNNY     79  36  21 E12       30.25R
LEXINGTON      HAZE      73  29  20 NE8       30.25R VSB 1
MCCOOK         SUNNY     78  44  29 NE10      30.22R
OGALLALA       SUNNY    N/A N/A N/A E10       30.25R
$$

NEZ005>010-023>029-035>040-094-290000-
NORTH CENTRAL NEBRASKA

CITY           SKY/WX    TMP DP  RH WIND       PRES   REMARKS
VALENTINE      SUNNY     70  27  20 E10       30.28R
AINSWORTH      SUNNY     68  38  33 NE8       30.29R
BROKEN BOW     SUNNY     71  36  27 NE12      30.26R
O`NEILL        SUNNY     65  42  43 NE8       30.29R
ORD            SUNNY     69  39  33 NE8       30.25R
THEDFORD       SUNNY     73  38  27 NE10      30.28R
$$

NEZ041-046>049-061>064-073>077-083>087-290000-
SOUTH CENTRAL NEBRASKA

CITY           SKY/WX    TMP DP  RH WIND       PRES   REMARKS
GRAND ISLAND   SUNNY     68  40  35 NE7       30.26R
AURORA         SUNNY     67  41  39 NE7       30.25R
HASTINGS       SUNNY     69  41  36 NE12      30.25R
HEBRON         SUNNY     69  39  34 N6        30.23R
HOLDREGE       SUNNY     72  29  20 NE12      30.24R
KEARNEY *      SUNNY     70  45  40 N14       30.24R
YORK           SUNNY     64  43  45 NE13      30.25R
$$

NEZ011>018-030>034-042>045-290000-
NORTHEAST NEBRASKA

CITY           SKY/WX    TMP DP  RH WIND       PRES   REMARKS
NORFOLK        SUNNY     65  42  43 NE9       30.26R
ALBION         SUNNY     66  41  40 NE8       30.26R
BLAIR          SUNNY     63  47  57 N9        30.25R
FREMONT        SUNNY     64  44  47 N8        30.26R
TEKAMAH        SUNNY     63  45  51 N12       30.26R
WAYNE          SUNNY     64  46  52 NE14      30.27R
$$

NEZ050>053-065>068-078-088>093-290000-
SOUTHEAST NEBRASKA

CITY           SKY/WX    TMP DP  RH WIND       PRES   REMARKS
LINCOLN        SUNNY     68  45  43 NE12      30.24R
OMAHA EPPLEY   MOSUNNY   64  46  52 N13       30.24R
BEATRICE       SUNNY     67  44  43 N13G20    30.22R
FALLS CITY     SUNNY     65  46  50 NE9G18    30.20R
NEBRASKA CITY  SUNNY     64  40  40 NE13      30.23R
PLATTSMOUTH    SUNNY     63  42  45 NE10G17   30.24R
$$

NEZ044-045-051>053-067-290000-
OMAHA AREA

CITY           SKY/WX    TMP DP  RH WIND       PRES   REMARKS
OMAHA EPPLEY   MOSUNNY   64  46  52 N13       30.24R
BLAIR          SUNNY     63  47  57 N9        30.25R
FREMONT        SUNNY     64  44  47 N8        30.26R
MILLARD        SUNNY     65  48  53 NE6       30.24R
OFFUTT AFB     SUNNY     64  47  54 NE7       30.23R
PLATTSMOUTH    SUNNY     63  42  45 NE10G17   30.24R
WAHOO          FAIR      65  42  43 NE13G18   30.24R
$$




USA.gov is the U.S. government's official web portal to all federal, state and local government web resources and services.